カタログに戻る

TITAN 3C TRANSTAGE R/B

運用中MEO
NORAD 12932·ROCKET BODY·🇺🇸 United States

打ち上げ Oct 31, 1981 から Cape Canaveral Space Force Station

Loading…

次のパス (今後24時間)

TLE

最新Source: Space-Track

元期: Sep 13, 2026, 23:08 UTC

1 12932U 81107C   26256.96417943  .00000035  00000-0  00000-0 0  9996
2 12932   5.3190   7.6833 0999109 116.7453 253.8720  0.99593373 27103

AllMySatでTITAN 3C TRANSTAGE R/Bをリアルタイム追跡

Download on the App Store